Flag for Austria Weather past 2 weeks in Melk, Lower Austria, Austria

Now
36 °F

Chilly.


Feels Like: 36 °F
Forecast: 46 / 71 °F
Wind: No wind

Location: Amstetten

Current Time: Apr 25, 2015 at 6:54:29 AM

Latest Report: Apr 25, 2015 at 6:00 AM


Visibility: N/A

Pressure: 29.99 "Hg

Humidity: 95%

Dew point: 35 °F

Location of MelkLocation

Historic Weather in Melk — Graph

°F

Melk temperature yesterday

Maximum temperature yesterday: 65 °F (at 6:00 PM)
Minimum temperature yesterday: 37 °F (at 7:00 AM)
Average temperature yesterday: 49 °F

Past Weeks' High & Low Weather Summary

 TemperatureHumidityPressure
High75 °F (Apr 16, 3:00 PM)100% (Apr 24, 7:00 AM)30.46 "Hg (Apr 24, 7:00 AM)
Low34 °F (Apr 19, 6:00 AM)26% (Apr 15, 4:00 PM)29.83 "Hg (Apr 17, 6:00 PM)
Average53 °F64%30.16 "Hg
* Reported Apr 10 5:00 AM — Apr 25 5:00 AM, Melk, Weather by CustomWeather, © 2015

Note: Actual official high and low records may vary slightly from our data, if they occured in-between our weather recording intervals... More about our weather records

Advertising

Melk weather history for previous 24 hours

 ConditionsComfort  
Time TempWeatherWind HumidityBarometerVisibility
5:00 AM
Sat, Apr 25
38 °FChilly.No wind96%29.98 "HgN/A
4:00 AM38 °FChilly.No wind96%29.99 "HgN/A
3:00 AM39 °FChilly.No wind95%29.99 "HgN/A
1:00 AM43 °FQuite cool.1 mph88%29.99 "HgN/A
12:00 AM45 °FQuite cool.No wind86%29.98 "HgN/A
11:00 PM
Fri, Apr 24
47 °FCool.1 mph80%29.98 "HgN/A
10:00 PM49 °FCool.1 mph74%29.98 "HgN/A
9:00 PM53 °FCool.No wind65%29.96 "HgN/A
8:00 PM58 °FRefreshingly cool.1 mph55%29.95 "HgN/A
7:00 PM64 °FMild.1 mph39%29.93 "HgN/A
6:00 PM65 °FMild.2 mph33%29.94 "HgN/A
5:00 PM65 °FMild.2 mph34%29.95 "HgN/A
4:00 PM64 °FMild.2 mph37%29.98 "HgN/A
3:00 PM62 °FRefreshingly cool.2 mph43%30.00 "HgN/A
2:00 PM59 °FRefreshingly cool.2 mph50%30.03 "HgN/A
1:00 PM57 °FCool.2 mph60%30.05 "HgN/A
12:00 PM53 °FCool.1 mph71%30.06 "HgN/A
11:00 AM49 °FCool.1 mph80%30.09 "HgN/A
10:00 AM45 °FCool.2 mph87%30.09 "HgN/A
9:00 AM42 °FQuite cool.2 mph98%30.10 "HgN/A
8:00 AM40 °FOvercast.1 mph100%30.10 "HgN/A
7:00 AM37 °FChilly.1 mph100%30.09 "HgN/A
6:00 AM38 °FChilly.1 mph99%30.08 "HgN/A
Weather by CustomWeather, © 2015

See weather overviewHow to use our weather pages